TimeEDT,TemperatureF,Dew PointF,Humidity,Sea Level PressureIn,VisibilityMPH,Wind Direction,Wind SpeedMPH,Gust SpeedMPH,PrecipitationIn,Events,Conditions,WindDirDegrees,DateUTC
12:53 AM,44.1,42.1,93,30.01,10.0,Calm,Calm,-,N/A,,Overcast,0,2012-10-21 04:53:00
1:53 AM,45.0,43.0,93,30.02,10.0,Calm,Calm,-,N/A,,Mostly Cloudy,0,2012-10-21 05:53:00
2:53 AM,41.0,39.9,96,30.04,6.0,Calm,Calm,-,N/A,,Clear,0,2012-10-21 06:53:00
3:53 AM,39.0,37.0,93,30.06,4.0,Calm,Calm,-,N/A,,Mostly Cloudy,0,2012-10-21 07:53:00
4:53 AM,44.1,43.0,96,30.07,8.0,Calm,Calm,-,N/A,,Overcast,0,2012-10-21 08:53:00
5:53 AM,45.0,44.1,97,30.09,9.0,Calm,Calm,-,N/A,,Overcast,0,2012-10-21 09:53:00
6:53 AM,44.1,42.1,93,30.11,9.0,Calm,Calm,-,N/A,,Scattered Clouds,0,2012-10-21 10:53:00
7:53 AM,41.0,39.0,93,30.11,5.0,Calm,Calm,-,N/A,,Clear,0,2012-10-21 11:53:00
8:53 AM,45.0,43.0,93,30.12,7.0,Calm,Calm,-,N/A,,Clear,0,2012-10-21 12:53:00
9:53 AM,52.0,46.0,80,30.14,10.0,SSE,4.6,-,N/A,,Clear,150,2012-10-21 13:53:00
10:53 AM,57.0,46.9,69,30.15,10.0,South,5.8,-,N/A,,Clear,170,2012-10-21 14:53:00
11:53 AM,61.0,46.9,60,30.14,10.0,South,10.4,-,N/A,,Clear,190,2012-10-21 15:53:00
12:53 PM,64.0,48.0,56,30.12,10.0,SSW,8.1,-,N/A,,Clear,210,2012-10-21 16:53:00
1:53 PM,66.0,48.0,52,30.10,10.0,SE,8.1,-,N/A,,Clear,140,2012-10-21 17:53:00
3:53 PM,68.0,46.9,47,30.08,10.0,Variable,4.6,-,N/A,,Clear,0,2012-10-21 19:53:00
4:53 PM,68.0,46.9,47,30.07,10.0,SSE,6.9,-,N/A,,Clear,160,2012-10-21 20:53:00
5:53 PM,66.9,46.9,49,30.07,10.0,SE,6.9,-,N/A,,Clear,140,2012-10-21 21:53:00
6:53 PM,63.0,46.9,56,30.07,10.0,ESE,4.6,-,N/A,,Clear,120,2012-10-21 22:53:00
7:53 PM,60.1,46.9,62,30.09,10.0,ESE,3.5,-,N/A,,Clear,120,2012-10-21 23:53:00
8:53 PM,55.9,46.9,72,30.09,10.0,Calm,Calm,-,N/A,,Clear,0,2012-10-22 00:53:00
9:53 PM,53.1,46.0,77,30.09,10.0,Calm,Calm,-,N/A,,Clear,0,2012-10-22 01:53:00
10:53 PM,54.0,45.0,72,30.09,10.0,SSE,3.5,-,N/A,,Clear,160,2012-10-22 02:53:00
11:53 PM,54.0,46.0,75,30.09,10.0,Calm,Calm,-,N/A,,Clear,0,2012-10-22 03:53:00